Time,TemperatureF,DewpointF,PressureIn,WindDirection,WindDirectionDegrees,WindSpeedMPH,WindSpeedGustMPH,Humidity,HourlyPrecipIn,Conditions,Clouds,dailyrainin,SolarRadiationWatts/m^2,SoftwareType,DateUTC
2013-01-07 00:02:00,31.0,31.0,-100.00,NNW,345,0.0,2.0,100,-99.99,,,0.01,0.000000,,2013-01-07 08:02:00,
2013-01-07 00:11:00,31.0,31.0,-100.00,NNW,345,0.0,2.0,100,-99.99,,,0.01,0.000000,,2013-01-07 08:11:00,
2013-01-07 00:42:00,32.0,32.0,-100.00,South,178,1.0,2.0,100,-99.99,,,-99.99,0.000000,,2013-01-07 08:42:00,
2013-01-07 00:53:00,32.0,32.0,-100.00,South,178,1.0,2.0,100,-99.99,,,-99.99,0.000000,,2013-01-07 08:53:00,
2013-01-07 01:02:00,32.0,32.0,-100.00,South,178,1.0,2.0,100,-99.99,,,-99.99,0.000000,,2013-01-07 09:02:00,
2013-01-07 01:12:00,32.0,32.0,-100.00,South,178,1.0,2.0,100,-99.99,,,-99.99,0.000000,,2013-01-07 09:12:00,
2013-01-07 01:42:00,32.0,32.0,-100.00,SSW,209,0.0,1.0,100,-99.99,,,0.01,0.000000,,2013-01-07 09:42:00,
2013-01-07 01:52:00,32.0,32.0,-100.00,SSW,209,0.0,1.0,100,-99.99,,,0.01,0.000000,,2013-01-07 09:52:00,
2013-01-07 02:02:00,32.0,32.0,-100.00,SSW,209,0.0,1.0,100,-99.99,,,0.01,0.000000,,2013-01-07 10:02:00,
2013-01-07 02:12:00,32.0,32.0,-100.00,SSW,209,0.0,1.0,100,-99.99,,,0.01,0.000000,,2013-01-07 10:12:00,
2013-01-07 02:42:00,32.0,32.0,-100.00,North,0,0.0,0.0,100,-99.99,,,0.01,0.000000,,2013-01-07 10:42:00,
2013-01-07 02:52:00,32.0,32.0,-100.00,North,0,0.0,0.0,100,-99.99,,,0.01,0.000000,,2013-01-07 10:52:00,
2013-01-07 03:02:00,32.0,32.0,-100.00,North,0,0.0,0.0,100,-99.99,,,0.01,0.000000,,2013-01-07 11:02:00,
2013-01-07 03:12:00,32.0,32.0,-100.00,North,0,0.0,0.0,100,-99.99,,,0.01,0.000000,,2013-01-07 11:12:00,
2013-01-07 03:32:00,32.0,32.0,-100.00,North,352,1.0,3.0,100,-99.99,,,0.01,0.000000,,2013-01-07 11:32:00,
2013-01-07 03:43:00,32.0,32.0,-100.00,North,352,1.0,3.0,100,-99.99,,,0.01,0.000000,,2013-01-07 11:43:00,
2013-01-07 03:53:00,32.0,32.0,-100.00,North,352,1.0,3.0,100,-99.99,,,0.01,0.000000,,2013-01-07 11:53:00,
2013-01-07 04:02:00,32.0,32.0,-100.00,North,352,1.0,3.0,100,-99.99,,,0.01,0.000000,,2013-01-07 12:02:00,
2013-01-07 04:12:00,32.0,32.0,-100.00,North,352,1.0,3.0,100,-99.99,,,0.01,0.000000,,2013-01-07 12:12:00,
2013-01-07 04:43:00,32.0,32.0,-100.00,North,0,2.0,6.0,100,-99.99,,,0.01,0.000000,,2013-01-07 12:43:00,
2013-01-07 04:53:00,32.0,32.0,-100.00,North,0,2.0,6.0,100,-99.99,,,0.01,0.000000,,2013-01-07 12:53:00,
2013-01-07 05:02:00,32.0,32.0,-100.00,North,0,2.0,6.0,100,-99.99,,,0.01,0.000000,,2013-01-07 13:02:00,
2013-01-07 05:12:00,32.0,32.0,-100.00,North,0,2.0,6.0,100,-99.99,,,0.01,0.000000,,2013-01-07 13:12:00,
2013-01-07 05:42:00,32.0,32.0,-100.00,NNW,344,1.0,3.0,100,-99.99,,,0.01,0.000000,,2013-01-07 13:42:00,
2013-01-07 05:53:00,32.0,32.0,-100.00,NNW,344,1.0,3.0,100,-99.99,,,0.01,0.000000,,2013-01-07 13:53:00,
2013-01-07 06:03:00,32.0,32.0,-100.00,NNW,344,1.0,3.0,100,-99.99,,,0.01,0.000000,,2013-01-07 14:03:00,
2013-01-07 06:12:00,32.0,32.0,-100.00,NNW,344,1.0,3.0,100,-99.99,,,0.01,0.000000,,2013-01-07 14:12:00,
2013-01-07 06:42:00,32.0,32.0,-100.00,North,358,2.0,6.0,100,-99.99,,,0.01,0.000000,,2013-01-07 14:42:00,
2013-01-07 06:53:00,32.0,32.0,-100.00,North,358,2.0,6.0,100,-99.99,,,0.01,0.000000,,2013-01-07 14:53:00,
2013-01-07 07:03:00,32.0,32.0,-100.00,North,358,2.0,6.0,100,-99.99,,,0.01,0.000000,,2013-01-07 15:03:00,
2013-01-07 07:12:00,32.0,32.0,-100.00,North,358,2.0,6.0,100,-99.99,,,0.01,0.000000,,2013-01-07 15:12:00,
2013-01-07 07:42:00,32.0,32.0,-100.00,NNW,337,1.0,4.0,100,-99.99,,,0.01,0.000000,,2013-01-07 15:42:00,
2013-01-07 07:53:00,32.0,32.0,-100.00,NNW,337,1.0,4.0,100,-99.99,,,0.01,0.000000,,2013-01-07 15:53:00,
2013-01-07 08:02:00,32.0,32.0,-100.00,NNW,337,1.0,4.0,100,-99.99,,,0.01,0.000000,,2013-01-07 16:02:00,
2013-01-07 08:12:00,32.0,32.0,-100.00,NNW,337,1.0,4.0,100,-99.99,,,0.01,0.000000,,2013-01-07 16:12:00,
2013-01-07 08:43:00,32.0,32.0,-100.00,NE,36,1.0,5.0,100,-99.99,,,0.01,9.650000,,2013-01-07 16:43:00,
2013-01-07 08:53:00,32.0,32.0,-100.00,NE,36,1.0,5.0,100,-99.99,,,0.01,9.650000,,2013-01-07 16:53:00,
2013-01-07 09:02:00,32.0,32.0,-100.00,NE,36,1.0,5.0,100,-99.99,,,0.01,9.650000,,2013-01-07 17:02:00,
2013-01-07 09:12:00,32.0,32.0,-100.00,NE,36,1.0,5.0,100,-99.99,,,0.01,9.650000,,2013-01-07 17:12:00,
2013-01-07 09:42:00,33.0,33.0,-100.00,NNE,16,3.0,7.0,100,-99.99,,,0.02,80.080002,,2013-01-07 17:42:00,
2013-01-07 09:53:00,33.0,33.0,-100.00,NNE,16,3.0,7.0,100,-99.99,,,0.02,80.080002,,2013-01-07 17:53:00,
2013-01-07 10:02:00,33.0,33.0,-100.00,NNE,16,3.0,7.0,100,-99.99,,,0.02,80.080002,,2013-01-07 18:02:00,
2013-01-07 10:12:00,33.0,33.0,-100.00,NNE,16,3.0,7.0,100,-99.99,,,0.02,80.080002,,2013-01-07 18:12:00,
2013-01-07 10:42:00,37.0,37.0,-100.00,NNE,27,3.0,8.0,100,-99.99,,,0.02,152.360001,,2013-01-07 18:42:00,
2013-01-07 10:53:00,37.0,37.0,-100.00,NNE,27,3.0,8.0,100,-99.99,,,0.02,152.360001,,2013-01-07 18:53:00,
2013-01-07 11:03:00,37.0,37.0,-100.00,NNE,27,3.0,8.0,100,-99.99,,,0.02,152.360001,,2013-01-07 19:03:00,
2013-01-07 11:12:00,37.0,37.0,-100.00,NNE,27,3.0,8.0,100,-99.99,,,0.02,152.360001,,2013-01-07 19:12:00,
2013-01-07 11:42:00,51.0,49.0,-100.00,SSE,160,3.0,12.0,93,-99.99,,,0.02,388.290009,,2013-01-07 19:42:00,
2013-01-07 11:53:00,51.0,49.0,-100.00,SSE,160,3.0,12.0,93,-99.99,,,0.02,388.290009,,2013-01-07 19:53:00,
2013-01-07 12:12:00,51.0,49.0,-100.00,SSE,160,3.0,12.0,93,-99.99,,,0.02,388.290009,,2013-01-07 20:12:00,
2013-01-07 12:42:00,54.0,42.0,-100.00,East,95,4.0,15.0,65,-99.99,,,0.02,324.250000,,2013-01-07 20:42:00,
2013-01-07 12:53:00,54.0,42.0,-100.00,East,95,4.0,15.0,65,-99.99,,,0.02,324.250000,,2013-01-07 20:53:00,
2013-01-07 13:42:00,54.0,42.0,-100.00,South,169,5.0,23.0,64,-99.99,,,0.02,346.799988,,2013-01-07 21:42:00,
2013-01-07 13:53:00,54.0,42.0,-100.00,South,169,5.0,23.0,64,-99.99,,,0.02,346.799988,,2013-01-07 21:53:00,
2013-01-07 14:12:00,54.0,42.0,-100.00,South,169,5.0,23.0,64,-99.99,,,0.02,346.799988,,2013-01-07 22:12:00,
2013-01-07 14:42:00,54.0,41.0,-100.00,SSE,168,5.0,14.0,60,-99.99,,,0.02,292.640015,,2013-01-07 22:42:00,
2013-01-07 14:53:00,54.0,41.0,-100.00,SSE,168,5.0,14.0,60,-99.99,,,0.02,292.640015,,2013-01-07 22:53:00,
2013-01-07 15:12:00,54.0,41.0,-100.00,SSE,168,5.0,14.0,60,-99.99,,,0.02,292.640015,,2013-01-07 23:12:00,
2013-01-07 15:42:00,52.0,39.0,-100.00,South,189,5.0,17.0,61,-99.99,,,0.02,82.279999,,2013-01-07 23:42:00,
2013-01-07 15:53:00,52.0,39.0,-100.00,South,189,5.0,17.0,61,-99.99,,,0.02,82.279999,,2013-01-07 23:53:00,
2013-01-07 16:02:00,52.0,39.0,-100.00,South,189,5.0,17.0,61,-99.99,,,0.02,82.279999,,2013-01-08 00:02:00,
2013-01-07 16:12:00,52.0,39.0,-100.00,South,189,5.0,17.0,61,-99.99,,,0.02,82.279999,,2013-01-08 00:12:00,
2013-01-07 16:32:00,49.0,40.0,-100.00,SE,145,5.0,14.0,70,-99.99,,,0.02,16.270000,,2013-01-08 00:32:00,
2013-01-07 16:42:00,49.0,40.0,-100.00,SE,145,5.0,14.0,70,-99.99,,,0.02,16.270000,,2013-01-08 00:42:00,
2013-01-07 16:52:00,49.0,40.0,-100.00,SE,145,5.0,14.0,70,-99.99,,,0.02,16.270000,,2013-01-08 00:52:00,
2013-01-07 17:02:00,49.0,40.0,-100.00,SE,145,5.0,14.0,70,-99.99,,,0.02,16.270000,,2013-01-08 01:02:00,
2013-01-07 17:12:00,49.0,40.0,-100.00,SE,145,5.0,14.0,70,-99.99,,,0.02,16.270000,,2013-01-08 01:12:00,
2013-01-07 17:42:00,49.0,38.0,-100.00,SSE,157,6.0,13.0,64,-99.99,,,0.02,0.000000,,2013-01-08 01:42:00,
2013-01-07 17:52:00,49.0,38.0,-100.00,SSE,157,6.0,13.0,64,-99.99,,,0.02,0.000000,,2013-01-08 01:52:00,
2013-01-07 18:02:00,49.0,38.0,-100.00,SSE,157,6.0,13.0,64,-99.99,,,0.02,0.000000,,2013-01-08 02:02:00,
2013-01-07 18:12:00,49.0,38.0,-100.00,SSE,157,6.0,13.0,64,-99.99,,,0.02,0.000000,,2013-01-08 02:12:00,
2013-01-07 18:42:00,48.0,38.0,-100.00,SSE,165,5.0,13.0,66,-99.99,,,0.02,0.000000,,2013-01-08 02:42:00,
2013-01-07 18:53:00,48.0,38.0,-100.00,SSE,165,5.0,13.0,66,-99.99,,,0.02,0.000000,,2013-01-08 02:53:00,
2013-01-07 19:03:00,48.0,38.0,-100.00,SSE,165,5.0,13.0,66,-99.99,,,0.02,0.000000,,2013-01-08 03:03:00,
2013-01-07 19:12:00,48.0,38.0,-100.00,SSE,165,5.0,13.0,66,-99.99,,,0.02,0.000000,,2013-01-08 03:12:00,
2013-01-07 19:42:00,47.0,38.0,-100.00,SSE,159,5.0,11.0,68,-99.99,,,0.02,0.000000,,2013-01-08 03:42:00,
2013-01-07 19:53:00,47.0,38.0,-100.00,SSE,159,5.0,11.0,68,-99.99,,,0.02,0.000000,,2013-01-08 03:53:00,
2013-01-07 20:02:00,47.0,38.0,-100.00,SSE,159,5.0,11.0,68,-99.99,,,0.02,0.000000,,2013-01-08 04:02:00,
2013-01-07 20:12:00,47.0,38.0,-100.00,SSE,159,5.0,11.0,68,-99.99,,,0.02,0.000000,,2013-01-08 04:12:00,
2013-01-07 20:32:00,47.0,38.0,-100.00,SSE,164,5.0,11.0,72,-99.99,,,0.02,0.000000,,2013-01-08 04:32:00,
2013-01-07 20:42:00,47.0,38.0,-100.00,SSE,164,5.0,11.0,72,-99.99,,,0.02,0.000000,,2013-01-08 04:42:00,
2013-01-07 20:52:00,47.0,38.0,-100.00,SSE,164,5.0,11.0,72,-99.99,,,0.02,0.000000,,2013-01-08 04:52:00,
2013-01-07 21:03:00,47.0,38.0,-100.00,SSE,164,5.0,11.0,72,-99.99,,,0.02,0.000000,,2013-01-08 05:03:00,
2013-01-07 21:12:00,47.0,38.0,-100.00,SSE,164,5.0,11.0,72,-99.99,,,0.02,0.000000,,2013-01-08 05:12:00,
2013-01-07 21:33:00,47.0,37.0,-100.00,SSE,161,5.0,11.0,67,-99.99,,,0.02,0.000000,,2013-01-08 05:33:00,
2013-01-07 21:42:00,47.0,37.0,-100.00,SSE,161,5.0,11.0,67,-99.99,,,0.02,0.000000,,2013-01-08 05:42:00,
2013-01-07 21:53:00,47.0,37.0,-100.00,SSE,161,5.0,11.0,67,-99.99,,,0.02,0.000000,,2013-01-08 05:53:00,
2013-01-07 22:02:00,47.0,37.0,-100.00,SSE,161,5.0,11.0,67,-99.99,,,0.02,0.000000,,2013-01-08 06:02:00,
2013-01-07 22:12:00,47.0,37.0,-100.00,SSE,161,5.0,11.0,67,-99.99,,,0.02,0.000000,,2013-01-08 06:12:00,
2013-01-07 22:32:00,46.0,37.0,-100.00,SSE,163,5.0,12.0,72,-99.99,,,0.02,0.000000,,2013-01-08 06:32:00,
2013-01-07 22:42:00,46.0,37.0,-100.00,SSE,163,5.0,12.0,72,-99.99,,,0.02,0.000000,,2013-01-08 06:42:00,
2013-01-07 22:52:00,46.0,37.0,-100.00,SSE,163,5.0,12.0,72,-99.99,,,0.02,0.000000,,2013-01-08 06:52:00,
2013-01-07 23:02:00,46.0,37.0,-100.00,SSE,163,5.0,12.0,72,-99.99,,,0.02,0.000000,,2013-01-08 07:02:00,
2013-01-07 23:11:00,46.0,37.0,-100.00,SSE,163,5.0,12.0,72,-99.99,,,0.02,0.000000,,2013-01-08 07:11:00,
2013-01-07 23:42:00,45.0,37.0,-100.00,SSE,164,5.0,15.0,72,-99.99,,,0.02,0.000000,,2013-01-08 07:42:00,
2013-01-07 23:52:00,45.0,37.0,-100.00,SSE,164,5.0,15.0,72,-99.99,,,0.02,0.000000,,2013-01-08 07:52:00,